カタログに戻る

STARLINK-30358

運用中通信VLEO
NORAD 57879·PAYLOAD·🇺🇸 United States

打ち上げ Sep 16, 2023 から Cape Canaveral Space Force Station

Loading…

次のパス (今後24時間)

TLE

最新Source: CelesTrak SupGP

元期: Sep 14, 2026, 20:35 UTC

1 57879C 23144R   26257.85812500 -.00048165  00000+0 -17447-2 0  2578
2 57879  43.0008 296.5807 0001470 265.0902  28.0340 15.27598850    14

AllMySatでSTARLINK-30358をリアルタイム追跡

Download on the App Store